Time,TemperatureF,DewpointF,PressureIn,WindDirection,WindDirectionDegrees,WindSpeedMPH,WindSpeedGustMPH,Humidity,HourlyPrecipIn,Conditions,Clouds,dailyrainin,SoftwareType,DateUTC
2013-04-20 00:14:00,32.4,31.0,29.85,WNW,293,1.0,3.0,95,0.00,,,0.00,weatherlink.com 1.10,2013-04-20 04:14:00,
2013-04-20 00:29:00,32.7,30.0,29.86,WNW,287,0.0,3.0,91,0.00,,,0.00,weatherlink.com 1.10,2013-04-20 04:29:00,
2013-04-20 00:44:00,33.0,31.0,29.86,West,269,0.0,1.0,91,0.00,,,0.00,weatherlink.com 1.10,2013-04-20 04:44:00,
2013-04-20 00:59:00,32.9,31.0,29.87,West,274,0.0,2.0,92,0.00,,,0.00,weatherlink.com 1.10,2013-04-20 04:59:00,
2013-04-20 01:14:00,33.2,31.0,29.88,WNW,283,0.0,2.0,91,0.00,,,0.00,weatherlink.com 1.10,2013-04-20 05:14:00,
2013-04-20 01:30:00,33.7,30.0,29.89,WNW,297,0.0,7.0,87,0.00,,,0.00,weatherlink.com 1.10,2013-04-20 05:30:00,
2013-04-20 01:45:00,32.8,30.0,29.90,NW,306,4.0,7.0,89,0.00,,,0.00,weatherlink.com 1.10,2013-04-20 05:45:00,
2013-04-20 02:00:00,31.5,29.0,29.91,NNW,345,1.0,4.0,89,0.00,,,0.00,weatherlink.com 1.10,2013-04-20 06:00:00,
2013-04-20 02:15:00,31.2,28.0,29.91,North,354,1.0,8.0,87,0.00,,,0.00,weatherlink.com 1.10,2013-04-20 06:15:00,
2013-04-20 02:30:00,31.1,28.0,29.92,NW,314,6.0,7.0,88,0.00,,,0.00,weatherlink.com 1.10,2013-04-20 06:30:00,
2013-04-20 02:45:00,31.3,28.0,29.92,WNW,290,1.0,4.0,87,0.00,,,0.00,weatherlink.com 1.10,2013-04-20 06:45:00,
2013-04-20 03:00:00,31.5,28.0,29.92,NW,304,0.0,3.0,88,0.00,,,0.00,weatherlink.com 1.10,2013-04-20 07:00:00,
2013-04-20 03:14:00,31.6,29.0,29.93,NW,307,0.0,2.0,88,0.00,,,0.00,weatherlink.com 1.10,2013-04-20 07:14:00,
2013-04-20 03:29:00,31.8,27.0,29.94,WSW,242,2.0,4.0,82,0.00,,,0.00,weatherlink.com 1.10,2013-04-20 07:29:00,
2013-04-20 03:44:00,31.9,27.0,29.95,North,353,1.0,5.0,81,0.00,,,0.00,weatherlink.com 1.10,2013-04-20 07:44:00,
2013-04-20 03:59:00,31.7,27.0,29.97,NW,318,1.0,4.0,81,0.00,,,0.00,weatherlink.com 1.10,2013-04-20 07:59:00,
2013-04-20 04:14:00,31.4,26.0,29.97,NW,321,2.0,5.0,81,0.00,,,0.00,weatherlink.com 1.10,2013-04-20 08:14:00,
2013-04-20 04:29:00,31.3,25.0,29.98,NNE,16,2.0,6.0,78,0.00,,,0.00,weatherlink.com 1.10,2013-04-20 08:29:00,
2013-04-20 04:45:00,31.1,25.0,29.99,WNW,285,1.0,4.0,79,0.00,,,0.00,weatherlink.com 1.10,2013-04-20 08:45:00,
2013-04-20 05:00:00,31.0,25.0,30.00,NNW,338,3.0,8.0,77,0.00,,,0.00,weatherlink.com 1.10,2013-04-20 09:00:00,
2013-04-20 05:15:00,30.8,25.0,30.01,NNW,333,3.0,8.0,78,0.00,,,0.00,weatherlink.com 1.10,2013-04-20 09:15:00,
2013-04-20 05:30:00,30.5,24.0,30.02,North,349,1.0,7.0,78,0.00,,,0.00,weatherlink.com 1.10,2013-04-20 09:30:00,
2013-04-20 05:45:00,30.3,24.0,30.02,North,1,1.0,4.0,78,0.00,,,0.00,weatherlink.com 1.10,2013-04-20 09:45:00,
2013-04-20 06:00:00,30.1,23.0,30.03,North,349,5.0,8.0,76,0.00,,,0.00,weatherlink.com 1.10,2013-04-20 10:00:00,
2013-04-20 06:15:00,29.7,24.0,30.05,NNW,336,1.0,7.0,79,0.00,,,0.00,weatherlink.com 1.10,2013-04-20 10:15:00,
2013-04-20 06:30:00,29.5,24.0,30.05,NW,311,0.0,4.0,80,0.00,,,0.00,weatherlink.com 1.10,2013-04-20 10:30:00,
2013-04-20 06:45:00,29.6,24.0,30.06,NE,34,0.0,3.0,80,0.00,,,0.00,weatherlink.com 1.10,2013-04-20 10:45:00,
2013-04-20 07:00:00,29.7,24.0,30.07,NW,322,1.0,2.0,79,0.00,,,0.00,weatherlink.com 1.10,2013-04-20 11:00:00,
2013-04-20 07:15:00,29.8,23.0,30.08,North,354,0.0,6.0,77,0.00,,,0.00,weatherlink.com 1.10,2013-04-20 11:15:00,
2013-04-20 07:30:00,29.9,23.0,30.10,WNW,300,1.0,4.0,76,0.00,,,0.00,weatherlink.com 1.10,2013-04-20 11:30:00,
2013-04-20 07:45:00,29.9,24.0,30.11,NNE,13,1.0,5.0,79,0.00,,,0.00,weatherlink.com 1.10,2013-04-20 11:45:00,
2013-04-20 08:00:00,29.8,25.0,30.12,NNW,335,1.0,5.0,82,0.00,,,0.00,weatherlink.com 1.10,2013-04-20 12:00:00,
2013-04-20 08:15:00,29.8,24.0,30.12,NW,307,2.0,4.0,78,0.00,,,0.00,weatherlink.com 1.10,2013-04-20 12:15:00,
2013-04-20 08:30:00,30.2,22.0,30.13,NNW,329,4.0,4.0,72,0.00,,,0.00,weatherlink.com 1.10,2013-04-20 12:30:00,
2013-04-20 08:46:00,31.2,21.0,30.14,WNW,301,6.0,10.0,67,0.00,,,0.00,weatherlink.com 1.10,2013-04-20 12:46:00,
2013-04-20 09:00:00,31.8,22.0,30.15,NNW,332,5.0,8.0,67,0.00,,,0.00,weatherlink.com 1.10,2013-04-20 13:00:00,
2013-04-20 09:15:00,32.5,22.0,30.16,NNW,328,3.0,7.0,66,0.00,,,0.00,weatherlink.com 1.10,2013-04-20 13:15:00,
2013-04-20 09:30:00,33.0,24.0,30.17,NW,314,3.0,6.0,69,0.00,,,0.00,weatherlink.com 1.10,2013-04-20 13:30:00,
2013-04-20 09:45:00,33.1,23.0,30.18,NW,315,6.0,11.0,66,0.00,,,0.00,weatherlink.com 1.10,2013-04-20 13:45:00,
2013-04-20 10:00:00,32.1,23.0,30.19,WNW,293,3.0,6.0,70,0.00,,,0.00,weatherlink.com 1.10,2013-04-20 14:00:00,
2013-04-20 10:15:00,33.0,24.0,30.20,NW,325,2.0,7.0,70,0.00,,,0.00,weatherlink.com 1.10,2013-04-20 14:15:00,
2013-04-20 10:30:00,32.8,23.0,30.21,NNW,337,6.0,7.0,66,0.00,,,0.00,weatherlink.com 1.10,2013-04-20 14:30:00,
2013-04-20 10:46:00,33.3,21.0,30.22,NNW,333,3.0,9.0,60,0.00,,,0.00,weatherlink.com 1.10,2013-04-20 14:46:00,
2013-04-20 11:01:00,33.9,22.0,30.23,NW,317,3.0,6.0,62,0.00,,,0.00,weatherlink.com 1.10,2013-04-20 15:01:00,
2013-04-20 11:16:00,34.2,23.0,30.24,NW,312,5.0,8.0,63,0.00,,,0.00,weatherlink.com 1.10,2013-04-20 15:16:00,
2013-04-20 11:31:00,33.9,23.0,30.25,North,5,4.0,11.0,65,0.00,,,0.00,weatherlink.com 1.10,2013-04-20 15:31:00,
2013-04-20 11:46:00,34.4,21.0,30.25,North,1,6.0,9.0,59,0.00,,,0.00,weatherlink.com 1.10,2013-04-20 15:46:00,
2013-04-20 12:01:00,34.3,23.0,30.26,WNW,294,1.0,7.0,63,0.00,,,0.00,weatherlink.com 1.10,2013-04-20 16:01:00,
2013-04-20 12:16:00,33.8,21.0,30.27,NW,311,2.0,8.0,61,0.00,,,0.00,weatherlink.com 1.10,2013-04-20 16:16:00,
2013-04-20 12:30:00,34.5,23.0,30.27,NW,322,3.0,7.0,62,0.00,,,0.00,weatherlink.com 1.10,2013-04-20 16:30:00,
2013-04-20 12:46:00,34.5,22.0,30.28,WNW,300,3.0,7.0,61,0.00,,,0.00,weatherlink.com 1.10,2013-04-20 16:46:00,
2013-04-20 13:01:00,35.1,24.0,30.28,SW,233,3.0,7.0,63,0.00,,,0.00,weatherlink.com 1.10,2013-04-20 17:01:00,
2013-04-20 13:16:00,34.9,23.0,30.29,West,271,6.0,9.0,61,0.00,,,0.00,weatherlink.com 1.10,2013-04-20 17:16:00,
2013-04-20 13:30:00,35.4,23.0,30.29,WNW,294,1.0,8.0,60,0.00,,,0.00,weatherlink.com 1.10,2013-04-20 17:30:00,
2013-04-20 13:46:00,35.5,23.0,30.30,NNE,25,2.0,9.0,60,0.00,,,0.00,weatherlink.com 1.10,2013-04-20 17:46:00,
2013-04-20 14:01:00,36.4,24.0,30.31,North,350,1.0,9.0,60,0.01,,,0.01,weatherlink.com 1.10,2013-04-20 18:01:00,
2013-04-20 14:16:00,36.0,22.0,30.31,NW,314,2.0,8.0,57,0.01,,,0.01,weatherlink.com 1.10,2013-04-20 18:16:00,
2013-04-20 14:32:00,35.2,23.0,30.32,NNW,348,2.0,8.0,62,0.01,,,0.01,weatherlink.com 1.10,2013-04-20 18:32:00,
2013-04-20 14:46:00,35.2,22.0,30.33,WSW,250,9.0,10.0,59,0.01,,,0.01,weatherlink.com 1.10,2013-04-20 18:46:00,
2013-04-20 15:01:00,36.1,23.0,30.33,West,262,2.0,7.0,59,0.00,,,0.01,weatherlink.com 1.10,2013-04-20 19:01:00,
2013-04-20 15:16:00,37.6,21.0,30.34,WSW,257,5.0,10.0,52,0.00,,,0.01,weatherlink.com 1.10,2013-04-20 19:16:00,
2013-04-20 15:31:00,38.9,23.0,30.35,WNW,296,3.0,12.0,54,0.00,,,0.01,weatherlink.com 1.10,2013-04-20 19:31:00,
2013-04-20 15:46:00,37.2,19.0,30.35,NW,326,4.0,8.0,49,0.00,,,0.01,weatherlink.com 1.10,2013-04-20 19:46:00,
2013-04-20 16:01:00,37.2,19.0,30.36,NNW,342,4.0,8.0,49,0.00,,,0.01,weatherlink.com 1.10,2013-04-20 20:01:00,
2013-04-20 16:16:00,38.1,20.0,30.36,NW,326,0.0,6.0,49,0.00,,,0.01,weatherlink.com 1.10,2013-04-20 20:16:00,
2013-04-20 16:31:00,39.4,20.0,30.36,West,274,6.0,9.0,46,0.00,,,0.01,weatherlink.com 1.10,2013-04-20 20:31:00,
2013-04-20 16:47:00,39.2,19.0,30.37,NNW,333,1.0,8.0,45,0.00,,,0.01,weatherlink.com 1.10,2013-04-20 20:47:00,
2013-04-20 17:02:00,38.4,19.0,30.38,NW,324,4.0,8.0,45,0.00,,,0.01,weatherlink.com 1.10,2013-04-20 21:02:00,
2013-04-20 17:16:00,38.9,19.0,30.38,North,6,5.0,7.0,45,0.00,,,0.01,weatherlink.com 1.10,2013-04-20 21:16:00,
2013-04-20 17:31:00,38.3,17.0,30.39,WNW,303,2.0,9.0,43,0.00,,,0.01,weatherlink.com 1.10,2013-04-20 21:31:00,
2013-04-20 17:46:00,38.4,18.0,30.39,WNW,303,2.0,6.0,44,0.00,,,0.01,weatherlink.com 1.10,2013-04-20 21:46:00,
2013-04-20 18:01:00,37.8,16.0,30.39,WNW,288,2.0,7.0,42,0.00,,,0.01,weatherlink.com 1.10,2013-04-20 22:01:00,
2013-04-20 18:16:00,37.8,16.0,30.40,WNW,303,3.0,7.0,42,0.00,,,0.01,weatherlink.com 1.10,2013-04-20 22:16:00,
2013-04-20 18:31:00,37.5,15.0,30.40,North,352,1.0,8.0,40,0.00,,,0.01,weatherlink.com 1.10,2013-04-20 22:31:00,
2013-04-20 18:47:00,37.1,15.0,30.41,ENE,75,1.0,7.0,41,0.00,,,0.01,weatherlink.com 1.10,2013-04-20 22:47:00,
2013-04-20 19:02:00,37.1,15.0,30.41,WNW,293,2.0,6.0,41,0.00,,,0.01,weatherlink.com 1.10,2013-04-20 23:02:00,
2013-04-20 19:17:00,36.7,15.0,30.41,North,351,2.0,5.0,41,0.00,,,0.01,weatherlink.com 1.10,2013-04-20 23:17:00,
2013-04-20 19:31:00,36.4,15.0,30.41,North,9,3.0,5.0,42,0.00,,,0.01,weatherlink.com 1.10,2013-04-20 23:31:00,
2013-04-20 19:46:00,35.8,15.0,30.41,NW,322,2.0,5.0,43,0.00,,,0.01,weatherlink.com 1.10,2013-04-20 23:46:00,
2013-04-20 20:01:00,35.3,16.0,30.41,NW,326,0.0,2.0,46,0.00,,,0.01,weatherlink.com 1.10,2013-04-21 00:01:00,
2013-04-20 20:16:00,34.8,16.0,30.42,NE,37,1.0,3.0,47,0.00,,,0.01,weatherlink.com 1.10,2013-04-21 00:16:00,
2013-04-20 20:32:00,34.2,17.0,30.43,NW,323,0.0,4.0,49,0.00,,,0.01,weatherlink.com 1.10,2013-04-21 00:32:00,
2013-04-20 20:47:00,33.2,17.0,30.44,NW,326,0.0,0.0,51,0.00,,,0.01,weatherlink.com 1.10,2013-04-21 00:47:00,
2013-04-20 21:01:00,31.8,17.0,30.45,NW,326,0.0,0.0,55,0.00,,,0.01,weatherlink.com 1.10,2013-04-21 01:01:00,
2013-04-20 21:17:00,30.5,18.0,30.45,NW,326,0.0,0.0,60,0.00,,,0.01,weatherlink.com 1.10,2013-04-21 01:17:00,
2013-04-20 21:32:00,29.6,21.0,30.46,NW,326,0.0,0.0,70,0.00,,,0.01,weatherlink.com 1.10,2013-04-21 01:32:00,
2013-04-20 21:47:00,28.6,19.0,30.47,NW,326,0.0,0.0,68,0.00,,,0.01,weatherlink.com 1.10,2013-04-21 01:47:00,
2013-04-20 22:02:00,28.4,21.0,30.48,NW,326,0.0,0.0,73,0.00,,,0.01,weatherlink.com 1.10,2013-04-21 02:02:00,
2013-04-20 22:17:00,28.0,20.0,30.48,NW,326,0.0,0.0,73,0.00,,,0.01,weatherlink.com 1.10,2013-04-21 02:17:00,
2013-04-20 22:32:00,27.5,20.0,30.48,NW,326,0.0,0.0,74,0.00,,,0.01,weatherlink.com 1.10,2013-04-21 02:32:00,
2013-04-20 22:47:00,27.0,21.0,30.49,NW,326,0.0,0.0,79,0.00,,,0.01,weatherlink.com 1.10,2013-04-21 02:47:00,
2013-04-20 23:02:00,26.6,21.0,30.49,NW,326,0.0,0.0,78,0.00,,,0.01,weatherlink.com 1.10,2013-04-21 03:02:00,
2013-04-20 23:17:00,26.1,21.0,30.50,NW,326,0.0,0.0,80,0.00,,,0.01,weatherlink.com 1.10,2013-04-21 03:17:00,
2013-04-20 23:32:00,25.3,21.0,30.50,NW,326,0.0,0.0,83,0.00,,,0.01,weatherlink.com 1.10,2013-04-21 03:32:00,
2013-04-20 23:47:00,25.5,21.0,30.50,NW,326,0.0,0.0,83,0.00,,,0.01,weatherlink.com 1.10,2013-04-21 03:47:00,